Tracking 19193 objects as of 24-Jun-2018
HD Live streaming from Space Station
objects crossing your sky now

FENGYUN 1C DEB

Track FENGYUN 1C DEB now!
10-day predictions


NORAD ID: 32360
Int'l Code: 1999-025CZD
Perigee: 768.8 km
Apogee: 1,176.2 km
Inclination: 98.1 °
Period: 104.4 minutes
Semi major axis: 7343 km
RCS: 0.0069 m2 (small)
Launch date: May 10, 1999
Source: People's Republic of China (PRC)
Launch site: Taiyaun Space Center, China (TSC)

Note: This is SATELLITE DEBRIS
aabbcc
Your satellite tracking list
Your tracking list is empty




NASA's NSSDC Master Catalog

Two Line Element Set (TLE):
1 32360U 99025CZD 18174.84498506  .00000965  00000-0  72876-3 0  9997
2 32360  98.1284 315.5807 0277402 296.4357  60.8579 13.79577240553750
Source of the keplerian elements: AFSPC